Location: Gleizolles
(44.4833°N, 6.7667°E)
Time: 16:51:24
(UTC+00:00)

Tiros 1 - Pass Details

Date: 28 June 2024
Orbit: 624 x 656 km, 48.4° (Epoch: 13 July)

Event Time Altitude Azimuth Distance (km) Brightness Sun altitude
Rises 22:03:38 0° 250° (WSW) 2,896 10.5 -19.1°
Reaches altitude 10° 22:05:56 10° 252° (WSW) 1,991 9.7 -19.2°
Maximum altitude 22:10:31 81° 339° (NNW) 637 7.1 -19.5°
Drops below altitude 10° 22:15:08 10° 68° (ENE) 2,001 9.7 -19.8°
Sets 22:17:28 0° 69° (ENE) 2,913 10.5 -19.9°
